SQ6MTB Weather Reports


Display with metric or nautical units.
time (UTC)temp
F
wind
direction
speed
MPH
gust
MPH
rain 1hr
in
rain 24hr
in
rain mn
in
humidity
%
barometer
mb
20260507210533 45 50 1.0 4.0 0.02 0.52 0.52 91 1018.0
20260507210113 45 43 0.0 4.0 0.01 0.51 0.51 91 1017.9
20260507205514 45 11 1.0 6.0 0.01 0.51 0.51 91 1017.8
20260507205028 45 51 0.0 3.0 0.01 0.51 0.51 91 1017.9
20260507204552 45 36 0.0 6.0 0.01 0.51 0.51 91 1017.7
20260507204104 45 50 3.0 6.0 0.00 0.50 0.50 91 1017.8
20260507203513 45 63 2.0 6.0 0.00 0.50 0.50 91 1017.7
20260507203030 45 28 1.0 5.0 0.00 0.50 0.50 91 1017.6
20260507202550 45 360 1.0 5.0 0.00 0.50 0.50 90 1017.5
20260507202002 45 13 2.0 5.0 0.00 0.50 0.50 90 1017.4
20260507201533 45 14 1.0 3.0 0.00 0.50 0.50 90 1017.4
20260507201044 45 13 0.0 5.0 0.00 0.50 0.50 90 1017.4
20260507200601 45 19 2.0 5.0 0.00 0.50 0.50 90 1017.4
20260507200034 45 32 1.0 6.0 0.00 0.50 0.50 90 1017.2
20260507195539 45 40 2.0 8.0 0.00 0.50 0.50 90 1017.2
20260507195054 45 360 2.0 8.0 0.00 0.50 0.50 90 1017.2
20260507194517 45 46 1.0 5.0 0.00 0.50 0.50 90 1017.2
20260507194032 45 39 1.0 5.0 0.00 0.50 0.50 90 1017.2
20260507193549 45 76 1.0 5.0 0.00 0.50 0.50 90 1017.2
20260507193023 45 26 1.0 6.0 0.00 0.50 0.50 90 1017.1
20260507192530 45 38 2.0 6.0 0.00 0.50 0.50 90 1017.1
20260507192051 45 60 2.0 6.0 0.00 0.50 0.50 90 1017.1
20260507191504 45 17 1.0 8.0 0.00 0.50 0.50 90 1017.0
20260507191016 45 15 2.0 8.0 0.00 0.50 0.50 90 1017.0
20260507190537 45 22 2.0 6.0 0.00 0.50 0.50 90 1016.9
20260507190052 45 30 1.0 9.0 0.00 0.50 0.50 90 1016.9
20260507185504 45 22 3.0 9.0 0.00 0.50 0.50 90 1016.8
20260507185020 45 23 2.0 9.0 0.00 0.50 0.50 90 1016.8
20260507184538 45 34 3.0 7.0 0.00 0.50 0.50 90 1016.8
20260507184057 45 22 1.0 7.0 0.00 0.50 0.50 90 1016.6
20260507183513 45 33 1.0 5.0 0.00 0.50 0.50 90 1016.6
20260507183159 45 37 2.0 6.0 0.00 0.50 0.50 90 1016.6
20260507182501 45 5 1.0 5.0 0.00 0.50 0.50 90 1016.5
20260507182029 45 10 1.0 9.0 0.00 0.50 0.50 90 1016.4
20260507181545 45 36 1.0 9.0 0.00 0.50 0.50 90 1016.4
20260507181008 45 5 1.0 9.0 0.00 0.50 0.50 90 1016.3
20260507180526 45 32 2.0 9.0 0.00 0.50 0.50 90 1016.3
20260507180045 45 30 2.0 9.0 0.00 0.50 0.50 90 1016.3
20260507175606 45 324 3.0 9.0 0.00 0.50 0.50 90 1016.2
20260507175028 45 39 1.0 6.0 0.00 0.50 0.50 90 1016.1
20260507174545 46 360 2.0 8.0 0.00 0.50 0.50 90 1016.1
20260507174009 46 22 1.0 8.0 0.00 0.50 0.50 90 1016.1
20260507173527 46 30 0.0 5.0 0.00 0.50 0.50 90 1016.1
20260507173105 46 37 1.0 5.0 0.00 0.50 0.50 90 1016.0
20260507172501 46 53 0.0 5.0 0.00 0.50 0.50 90 1016.0
20260507172030 46 13 0.0 5.0 0.01 0.50 0.50 90 1015.9
20260507171550 46 355 0.0 5.0 0.01 0.50 0.50 90 1015.8
20260507171008 46 360 2.0 6.0 0.01 0.50 0.50 90 1015.8
20260507170527 46 355 2.0 6.0 0.01 0.50 0.50 90 1015.8
20260507170048 46 51 1.0 6.0 0.01 0.50 0.50 90 1015.7
20260507165508 46 355 1.0 6.0 0.01 0.50 0.50 90 1015.6
20260507165029 46 47 1.0 6.0 0.01 0.50 0.50 89 1015.5
20260507164554 46 48 1.0 6.0 0.01 0.50 0.50 89 1015.5
20260507164004 46 304 2.0 8.0 0.01 0.50 0.50 89 1015.5
20260507163531 47 350 3.0 8.0 0.01 0.50 0.50 90 1015.5
20260507163050 47 343 1.0 6.0 0.01 0.50 0.50 90 1015.3
20260507162504 47 10 0.0 4.0 0.00 0.50 0.50 90 1015.4
20260507162025 47 5 1.0 6.0 0.00 0.50 0.50 90 1015.4
20260507161603 47 17 0.0 6.0 0.01 0.50 0.50 90 1015.4
20260507161004 47 26 3.0 6.0 0.02 0.50 0.50 90 1015.4
20260507160532 47 19 1.0 9.0 0.02 0.50 0.50 90 1015.4
20260507155509 47 40 2.0 8.0 0.04 0.50 0.50 90 1015.3
20260507155025 47 329 2.0 8.0 0.04 0.50 0.50 90 1015.3
20260507154545 47 19 1.0 6.0 0.05 0.50 0.50 90 1015.3
20260507154001 47 5 2.0 9.0 0.05 0.50 0.50 90 1015.3
20260507153529 47 355 4.0 9.0 0.06 0.50 0.50 90 1015.3
20260507153049 47 341 2.0 9.0 0.06 0.50 0.50 90 1015.2
20260507152506 47 36 3.0 9.0 0.06 0.50 0.50 90 1015.2
20260507152026 47 42 2.0 10.0 0.06 0.50 0.50 89 1015.2
20260507151545 47 20 4.0 10.0 0.05 0.49 0.49 90 1015.2
20260507151001 47 46 3.0 7.0 0.04 0.48 0.48 90 1015.2
20260507150530 47 86 1.0 4.0 0.03 0.47 0.47 90 1015.2
20260507150049 47 65 0.0 5.0 0.02 0.46 0.46 89 1015.1
20260507145507 47 52 2.0 5.0 0.02 0.46 0.46 89 1015.1
20260507145029 47 36 2.0 5.0 0.02 0.46 0.46 88 1015.1
20260507144555 47 42 1.0 5.0 0.01 0.45 0.45 88 1015.1
20260507144059 47 23 1.0 8.0 0.01 0.45 0.45 88 1015.2
20260507143516 47 23 3.0 8.0 0.00 0.44 0.44 88 1015.1
20260507143037 47 21 1.0 4.0 0.00 0.44 0.44 88 1015.2
20260507142557 47 64 1.0 4.0 0.00 0.44 0.44 88 1015.1
20260507142013 47 82 1.0 6.0 0.00 0.44 0.44 88 1015.0
20260507141532 47 59 2.0 9.0 0.00 0.44 0.44 88 1015.1
20260507141052 47 65 1.0 9.0 0.00 0.44 0.44 88 1015.0
20260507140512 47 17 4.0 9.0 0.00 0.44 0.44 88 1014.9
20260507140032 47 41 3.0 9.0 0.00 0.44 0.44 88 1015.0
20260507135550 47 59 3.0 8.0 0.00 0.44 0.44 88 1014.9
20260507135013 47 44 2.0 9.0 0.00 0.44 0.44 88 1014.9
20260507134532 47 75 4.0 9.0 0.00 0.44 0.44 88 1014.8
20260507134050 47 44 2.0 8.0 0.00 0.44 0.44 88 1014.7
20260507133508 47 67 4.0 9.0 0.00 0.44 0.44 88 1014.7
20260507133035 47 61 3.0 9.0 0.00 0.44 0.44 88 1014.6
20260507132554 47 57 2.0 7.0 0.00 0.44 0.44 88 1014.5
20260507132020 47 88 3.0 7.0 0.00 0.44 0.44 88 1014.5
20260507131539 47 39 2.0 7.0 0.00 0.44 0.44 87 1014.5
20260507131005 47 57 1.0 11.0 0.00 0.44 0.44 87 1014.5
20260507130532 47 57 5.0 11.0 0.00 0.44 0.44 87 1014.5
20260507130050 47 48 2.0 8.0 0.00 0.44 0.44 87 1014.4
20260507125508 47 333 3.0 11.0 0.00 0.44 0.44 87 1014.2
20260507125031 47 26 4.0 11.0 0.00 0.44 0.44 87 1014.2
20260507124547 48 29 1.0 9.0 0.00 0.44 0.44 87 1014.2
20260507124003 48 51 3.0 9.0 0.00 0.44 0.44 87 1014.1
20260507123527 48 13 3.0 6.0 0.00 0.44 0.44 88 1014.1
20260507123047 47 46 2.0 11.0 0.00 0.44 0.44 87 1014.0
20260507122502 48 355 3.0 8.0 0.00 0.44 0.44 88 1014.0
20260507122024 48 17 3.0 9.0 0.00 0.44 0.44 87 1014.0
20260507121539 48 339 3.0 9.0 0.00 0.44 0.44 87 1013.9
20260507121058 48 73 5.0 9.0 0.00 0.44 0.44 87 1013.9
20260507120514 48 51 1.0 5.0 0.00 0.44 0.44 88 1013.8
20260507120034 48 5 2.0 8.0 0.00 0.44 0.44 88 1013.8
20260507115554 48 86 2.0 8.0 0.00 0.45 0.44 88 1013.7
20260507115012 48 81 3.0 9.0 0.00 0.45 0.44 89 1013.8
20260507114548 47 5 4.0 9.0 0.01 0.45 0.44 89 1013.8
20260507114006 47 35 2.0 8.0 0.01 0.45 0.44 89 1013.9
20260507113524 47 26 2.0 8.0 0.02 0.45 0.44 89 1013.9
20260507113044 47 13 3.0 8.0 0.02 0.45 0.44 89 1013.9
20260507112503 47 19 3.0 8.0 0.02 0.45 0.44 89 1013.8
20260507112025 47 360 3.0 8.0 0.02 0.45 0.44 89 1013.8
20260507111552 47 27 1.0 6.0 0.02 0.45 0.44 89 1013.7
20260507111008 47 32 1.0 7.0 0.02 0.45 0.44 89 1013.6
20260507110527 47 51 3.0 7.0 0.02 0.45 0.44 90 1013.6
20260507110044 47 355 3.0 5.0 0.02 0.45 0.44 90 1013.6
20260507105500 47 44 1.0 5.0 0.02 0.45 0.44 90 1013.6
20260507105030 46 24 2.0 6.0 0.03 0.45 0.44 90 1013.6
20260507104550 46 30 2.0 8.0 0.02 0.44 0.43 89 1013.7
20260507104006 46 57 2.0 7.0 0.02 0.44 0.43 90 1013.6
20260507103526 46 15 3.0 8.0 0.02 0.43 0.43 90 1013.4
20260507103043 46 22 3.0 7.0 0.02 0.43 0.43 90 1013.4
20260507102502 46 25 3.0 8.0 0.02 0.43 0.43 90 1013.4
20260507102017 46 69 3.0 9.0 0.02 0.43 0.43 90 1013.4
20260507101558 46 9 2.0 9.0 0.01 0.43 0.42 90 1013.5
20260507101002 46 24 2.0 6.0 0.01 0.43 0.42 90 1013.4
20260507100527 46 40 1.0 4.0 0.01 0.43 0.42 89 1013.3
20260507100047 46 16 1.0 5.0 0.01 0.43 0.42 89 1013.3
20260507095550 46 10 1.0 5.0 0.01 0.43 0.42 89 1013.3
20260507095006 46 49 0.0 5.0 0.00 0.42 0.41 89 1013.2
20260507094526 45 355 0.0 5.0 0.00 0.42 0.41 89 1013.1
20260507094046 45 29 2.0 5.0 0.00 0.42 0.41 89 1013.2
20260507093508 45 5 1.0 6.0 0.00 0.42 0.41 89 1013.1
20260507093039 46 22 2.0 8.0 0.00 0.42 0.41 89 1012.9
20260507092548 45 66 4.0 9.0 0.00 0.42 0.41 89 1012.9
20260507092004 45 36 5.0 10.0 0.00 0.42 0.41 88 1012.9
20260507091523 46 59 4.0 10.0 0.00 0.42 0.41 89 1012.7
20260507091041 46 71 2.0 6.0 0.00 0.42 0.41 89 1012.7
20260507090558 46 55 2.0 5.0 0.00 0.42 0.41 89 1012.6
20260507090016 46 30 1.0 6.0 0.00 0.42 0.41 89 1012.6
20260507085538 46 345 1.0 5.0 0.00 0.42 0.41 89 1012.5
20260507085055 45 58 1.0 5.0 0.00 0.42 0.41 89 1012.5
20260507084522 45 35 0.0 3.0 0.00 0.42 0.41 89 1012.4
20260507084040 45 50 0.0 6.0 0.00 0.42 0.41 89 1012.4
20260507083600 45 340 2.0 9.0 0.00 0.42 0.41 89 1012.4
20260507083021 45 69 4.0 8.0 0.00 0.42 0.41 90 1012.4
20260507082536 45 355 2.0 6.0 0.01 0.42 0.41 90 1012.4
20260507082056 45 5 0.0 5.0 0.01 0.42 0.41 90 1012.2
20260507081533 45 51 2.0 7.0 0.01 0.42 0.41 90 1012.2
20260507081041 45 38 3.0 8.0 0.02 0.42 0.41 90 1012.2
20260507080601 45 55 1.0 5.0 0.02 0.42 0.41 90 1012.1
20260507080021 45 47 2.0 6.0 0.02 0.42 0.41 90 1012.1
20260507075549 45 61 3.0 7.0 0.02 0.42 0.41 90 1012.1
20260507075005 45 20 3.0 6.0 0.03 0.42 0.41 90 1012.0
20260507074523 45 45 2.0 5.0 0.03 0.42 0.41 90 1012.0
20260507074043 45 37 1.0 7.0 0.03 0.42 0.41 90 1011.9
20260507073509 45 61 3.0 9.0 0.03 0.42 0.41 90 1011.8
20260507073027 45 42 4.0 9.0 0.03 0.42 0.41 90 1011.8
20260507072547 45 5 3.0 6.0 0.03 0.41 0.40 90 1011.7
20260507072004 45 44 2.0 5.0 0.03 0.41 0.40 90 1011.5
20260507071526 45 360 2.0 5.0 0.02 0.40 0.39 90 1011.4
20260507071040 45 44 1.0 5.0 0.02 0.40 0.39 90 1011.3
20260507070505 45 22 1.0 6.0 0.02 0.40 0.39 90 1011.3
20260507070022 45 64 2.0 6.0 0.02 0.39 0.39 90 1011.3
20260507065551 45 58 4.0 6.0 0.02 0.39 0.39 90 1011.2
20260507065008 45 54 3.0 8.0 0.01 0.39 0.38 90 1011.2
20260507064542 45 34 3.0 9.0 0.01 0.39 0.38 90 1011.0
20260507064056 45 26 1.0 9.0 0.01 0.39 0.38 90 1011.0
20260507063520 45 73 2.0 6.0 0.01 0.39 0.38 90 1011.0
20260507063037 45 18 3.0 5.0 0.01 0.39 0.38 90 1010.9
20260507062555 45 49 2.0 5.0 0.00 0.38 0.37 90 1010.8
20260507062023 45 35 1.0 6.0 0.00 0.38 0.37 90 1010.7
20260507061542 45 355 1.0 6.0 0.00 0.38 0.37 90 1010.7
20260507061100 45 12 2.0 8.0 0.00 0.38 0.37 90 1010.7
20260507060520 45 32 2.0 8.0 0.00 0.38 0.37 90 1010.6
20260507060038 45 348 2.0 6.0 0.00 0.38 0.37 90 1010.6
20260507055557 45 23 1.0 6.0 0.00 0.38 0.37 90 1010.6
20260507055022 45 38 2.0 8.0 0.00 0.38 0.37 90 1010.5
20260507054543 45 22 3.0 8.0 0.00 0.38 0.37 90 1010.4
20260507054100 45 19 0.0 4.0 0.00 0.38 0.37 90 1010.4
20260507053517 45 54 1.0 6.0 0.00 0.38 0.37 90 1010.3
20260507053037 45 324 0.0 5.0 0.00 0.38 0.37 90 1010.4
20260507052555 45 64 2.0 8.0 0.00 0.38 0.37 90 1010.3
20260507052021 45 345 3.0 8.0 0.00 0.38 0.37 90 1010.2
20260507051538 45 48 2.0 6.0 0.00 0.38 0.37 90 1010.2
20260507051046 46 13 3.0 6.0 0.00 0.38 0.37 91 1010.1
20260507050503 46 11 2.0 6.0 0.00 0.38 0.37 91 1010.0
20260507050038 46 76 3.0 8.0 0.00 0.38 0.37 90 1009.8
20260507045554 45 40 2.0 8.0 0.00 0.38 0.37 90 1009.8
20260507045018 45 55 3.0 6.0 0.00 0.38 0.37 90 1009.8
20260507044538 45 18 0.0 10.0 0.00 0.38 0.37 90 1009.7
20260507044056 45 80 2.0 10.0 0.00 0.38 0.37 90 1009.6
20260507043514 45 59 3.0 6.0 0.01 0.38 0.37 90 1009.6
20260507043041 45 61 3.0 8.0 0.01 0.38 0.37 90 1009.6
20260507042559 45 92 2.0 6.0 0.01 0.38 0.37 90 1009.5
20260507042026 45 40 3.0 6.0 0.01 0.38 0.37 90 1009.5
20260507041554 45 15 1.0 7.0 0.01 0.38 0.37 90 1009.4
20260507041012 45 55 3.0 7.0 0.02 0.38 0.37 90 1009.3
20260507040534 45 64 2.0 5.0 0.04 0.38 0.37 90 1009.2
20260507040055 45 32 2.0 8.0 0.06 0.38 0.37 90 1009.1
20260507035506 45 36 2.0 8.0 0.08 0.38 0.37 90 1009.0
20260507035022 45 21 1.0 8.0 0.10 0.38 0.37 90 1009.1
20260507034540 45 13 2.0 7.0 0.11 0.38 0.37 90 1009.1
20260507034058 45 40 2.0 6.0 0.13 0.38 0.37 90 1009.1
20260507033526 45 11 1.0 6.0 0.14 0.37 0.36 90 1009.1
20260507033046 45 355 1.0 4.0 0.16 0.37 0.36 90 1009.1
20260507032510 45 55 1.0 4.0 0.18 0.37 0.36 90 1009.1
20260507032029 45 38 1.0 6.0 0.20 0.37 0.36 90 1009.1
20260507031550 45 360 0.0 6.0 0.21 0.37 0.36 90 1008.9
20260507031007 45 23 1.0 4.0 0.21 0.35 0.35 90 1009.0
20260507030527 45 26 0.0 9.0 0.21 0.34 0.33 90 1009.0
20260507030045 45 19 3.0 9.0 0.21 0.31 0.31 89 1008.9
20260507025506 46 40 3.0 7.0 0.20 0.28 0.28 89 1008.8
20260507025032 46 57 3.0 6.0 0.20 0.28 0.27 89 1008.9
20260507024552 46 351 2.0 5.0 0.20 0.27 0.26 89 1009.0
20260507024011 46 30 1.0 9.0 0.20 0.25 0.24 89 1009.1
20260507023525 46 342 4.0 9.0 0.19 0.23 0.22 89 1009.2
20260507023054 46 323 2.0 9.0 0.18 0.21 0.20 89 1009.2
20260507022513 46 348 0.0 8.0 0.17 0.19 0.18 89 1009.1
20260507022041 46 331 2.0 8.0 0.15 0.17 0.17 89 1009.1
20260507021507 46 26 0.0 9.0 0.14 0.16 0.15 89 1009.0
20260507021023 46 5 3.0 9.0 0.13 0.14 0.13 89 1009.1
20260507020542 46 331 2.0 8.0 0.11 0.12 0.11 88 1009.0
20260507020009 46 5 3.0 8.0 0.09 0.10 0.09 88 1009.0
20260507015530 46 319 2.0 6.0 0.08 0.21 0.08 88 1009.0
20260507015048 47 348 2.0 5.0 0.07 0.20 0.07 88 1008.9
20260507014515 47 47 2.0 6.0 0.06 0.19 0.06 88 1008.8
20260507014035 47 28 4.0 7.0 0.05 0.18 0.05 88 1008.7
20260507013555 47 306 2.0 6.0 0.03 0.17 0.03 88 1008.6
20260507013037 47 321 1.0 5.0 0.02 0.16 0.02 88 1008.7
20260507012541 47 18 0.0 5.0 0.02 0.15 0.02 87 1008.6
20260507012102 47 22 2.0 5.0 0.02 0.15 0.02 87 1008.6
20260507011531 47 22 2.0 5.0 0.01 0.14 0.01 87 1008.6
20260507011036 48 23 2.0 9.0 0.00 0.13 0.00 86 1008.5
20260507010556 48 304 2.0 9.0 0.00 0.13 0.00 86 1008.5
20260507010011 48 22 0.0 9.0 0.00 0.13 0.00 86 1008.4
20260507005540 48 21 2.0 9.0 0.00 0.40 0.00 86 1008.3
20260507005057 48 340 3.0 7.0 0.00 0.40 0.00 85 1008.3
20260507004517 48 346 2.0 6.0 0.00 0.40 0.00 85 1008.3
20260507004032 48 13 1.0 8.0 0.00 0.40 0.00 85 1008.2
20260507003554 48 348 3.0 8.0 0.00 0.40 0.00 85 1008.1
20260507003010 49 355 1.0 5.0 0.00 0.40 0.00 85 1008.2
20260507002539 49 19 2.0 6.0 0.00 0.40 0.00 85 1008.2
20260507002100 49 360 1.0 6.0 0.00 0.40 0.00 85 1008.2
20260507001525 48 337 1.0 5.0 0.00 0.40 0.00 85 1008.3
20260507001047 49 24 2.0 5.0 0.00 0.40 0.00 85 1008.4
20260507000516 49 43 2.0 6.0 0.00 0.40 0.00 85 1008.4
20260507000031 49 5 3.0 6.0 0.00 0.40 0.00 85 1008.3
20260506235547 49 70 1.0 6.0 0.00 0.43 0.00 85 1008.3
20260506235005 49 70 3.0 7.0 0.00 0.43 0.00 85 1008.0
20260506234529 49 64 2.0 7.0 0.00 0.43 0.00 84 1008.0
20260506234052 49 12 0.0 7.0 0.00 0.43 0.00 84 1007.9
20260506233506 49 325 2.0 9.0 0.00 0.43 0.00 84 1007.8
20260506233026 49 16 2.0 9.0 0.00 0.43 0.00 84 1007.9
20260506232545 49 46 1.0 8.0 0.00 0.43 0.00 84 1008.1
20260506232002 49 30 2.0 8.0 0.00 0.43 0.00 84 1008.1
20260506231530 49 11 2.0 6.0 0.00 0.43 0.00 84 1008.1
20260506231049 49 23 1.0 5.0 0.00 0.43 0.00 84 1008.2
20260506230505 49 5 1.0 5.0 0.00 0.43 0.00 84 1008.1
20260506230025 49 26 1.0 6.0 0.00 0.43 0.00 84 1008.1
20260506225545 50 11 2.0 6.0 0.00 0.48 0.00 84 1008.0
20260506225002 50 24 1.0 5.0 0.00 0.48 0.00 84 1007.9
20260506224533 50 24 1.0 8.0 0.00 0.48 0.00 84 1007.9
20260506224052 50 31 2.0 8.0 0.00 0.48 0.00 84 1007.9
20260506223520 50 26 2.0 9.0 0.00 0.48 0.00 84 1007.8
20260506223047 50 46 2.0 9.0 0.00 0.48 0.00 84 1007.8
20260506222506 50 61 3.0 9.0 0.00 0.48 0.00 83 1007.8
20260506222024 50 67 4.0 9.0 0.00 0.48 0.00 83 1007.7
20260506221552 50 27 3.0 7.0 0.00 0.48 0.00 83 1007.9
20260506221012 50 60 3.0 9.0 0.00 0.48 0.00 83 1007.8
20260506220538 50 40 3.0 6.0 0.00 0.48 0.00 83 1007.8
20260506220057 50 38 3.0 9.0 0.00 0.48 0.00 83 1007.8
20260506215522 51 12 3.0 9.0 0.00 0.48 0.48 83 1007.8
20260506215039 51 49 4.0 10.0 0.00 0.48 0.48 83 1007.8
20260506214609 51 52 3.0 9.0 0.00 0.48 0.48 82 1007.6
20260506214023 51 46 2.0 8.0 0.00 0.48 0.48 83 1007.6
20260506213545 51 31 2.0 8.0 0.00 0.48 0.48 83 1007.7
20260506213012 51 80 1.0 8.0 0.00 0.48 0.48 83 1007.7
20260506212529 51 53 1.0 8.0 0.00 0.48 0.48 82 1007.6
20260506212051 51 30 2.0 8.0 0.00 0.48 0.48 82 1007.5
20260506211506 51 5 3.0 8.0 0.00 0.48 0.48 82 1007.5
20260506211024 51 44 2.0 8.0 0.00 0.48 0.48 82 1007.5